Location: Tarleton Observatory
(32.2162°N, 98.0976°W)
Time: 22:36:46
(UTC-05:00)

Daily predictions for brighter satellites

Satellite Brightness Start Highest point End
(mag) Time Altitude Azimuth Time Altitude Azimuth Time Altitude Azimuth
H-2A R/B 2.7 20:41:36 10° WSW 20:44:26 54° SSE 20:55:18 10° E
Cosmos 1606 4.5 20:53:31 10° NE 20:56:07 17° ENE 20:58:41 10° ESE
Meteor 2-3 Rocket 4.5 20:50:42 10° SSW 20:56:13 59° W 21:01:44 10° N
Cosmos 1892 2.8 20:52:35 10° S 20:56:24 82° W 21:00:17 10° N
CZ-4 DEB 4.5 20:56:20 10° ESE 20:58:31 18° ENE 21:00:43 10° NNE
Resurs 01 Rocket 3.0 20:58:26 10° S 21:02:36 42° W 21:06:47 10° NNW
USA 186 2.2 21:00:05 10° SSE 21:03:04 42° ENE 21:06:12 10° N
ALOS 2.3 20:59:26 10° SSE 21:04:03 67° ENE 21:08:41 10° N
Cosmos 1862 4.3 21:01:35 10° SSE 21:05:01 27° E 21:08:29 10° NNE
Sich 1 Rocket 3.9 21:00:57 10° SSE 21:05:19 47° E 21:09:43 10° NNE
Coronas F rocket 3.0 21:04:50 10° SSW 21:07:18 36° W 21:09:46 10° NNW
OAO 3 Rocket 3.2 21:04:03 10° WSW 21:09:01 76° SSE 21:13:58 10° ENE
GPS 2-05 Rocket1 3.8 21:05:39 10° W 21:09:18 49° N 21:12:54 10° ENE
Lacrosse 5 rocket 3.1 21:07:58 10° SE 21:09:32 12° ESE 21:11:03 10° E
ATLAS 2A CENTAUR R/B 2.1 21:06:54 10° WSW 21:11:25 26° S 21:13:04 13° SE
Cosmos 1408 3.6 21:09:35 10° SSE 21:12:40 26° E 21:15:43 10° NNE
H-2A R/B 2.6 21:11:17 10° SSE 21:14:58 75° ENE 21:18:42 10° N
CZ-4B DEB 4.2 21:12:06 10° S 21:15:12 41° W 21:18:19 10° NNW
Centaur AC-119 2.7 21:12:31 10° WSW 21:15:23 25° S 21:16:36 15° SE
ATLAS 5 CENTAUR R/B 2.9 21:09:31 10° NW 21:15:38 64° WSW 21:22:04 10° SSE
Cosmos 1733 Rocket 3.6 21:14:10 10° SSW 21:18:31 61° W 21:22:51 10° N
Cosmos 1908 Rocket 3.7 21:15:14 10° S 21:19:29 52° E 21:23:49 10° NNE
Meteor 1-27 Rocket 4.1 21:16:27 10° N 21:21:42 43° ENE 21:26:44 11° SSE
Cosmos 1378 Rocket 4.5 21:18:30 10° NNE 21:22:18 29° E 21:25:11 15° SE
USA 215 4.2 21:19:09 10° SSE 21:25:19 43° SW 21:31:30 10° WNW
SL-27 R/B 3.0 21:21:59 10° NNW 21:25:32 61° WSW 21:29:00 10° S
Cosmos 1782 2.8 21:28:44 10° N 21:32:47 85° W 21:36:50 10° S
Cosmos 1825 2.2 21:32:27 10° S 21:36:12 60° E 21:39:58 10° NNE
Envisat 3.7 21:35:07 18° SE 21:38:19 37° ENE 21:42:58 10° N
SEDSat Delta rocket 2.9 21:33:53 10° WSW 21:38:29 64° S 21:41:22 19° E
Cosmos 2341 Rocket 4.1 21:33:11 10° S 21:39:22 60° E 21:45:30 10° NNE
Meteosat 1 Rocket2 4.0 21:35:28 10° W 21:40:20 55° S 21:45:16 20° ESE
FENGYUN 3A 4.4 21:37:25 10° S 21:42:39 52° W 21:47:54 10° NNW
Cosmos 1833 Rocket 4.5 21:39:42 10° NNE 21:42:58 15° ENE 21:45:06 13° E
Cosmos 962 Rocket 4.5 21:37:51 10° S 21:43:55 65° E 21:50:05 10° NNE
deb Chang Zheng 4 3.7 21:39:57 10° NNE 21:44:18 55° E 21:48:39 10° S
ISS 0.2 21:45:14 10° NW 21:45:58 11° NNW 21:46:41 10° NNW
Cosmos 2278 Rocket 2.7 21:40:52 10° SSW 21:46:29 63° WNW 21:52:08 10° NNE
ERS-1 Rocket 2.9 21:43:05 16° SSE 21:47:08 71° ENE 21:52:09 10° N
H-2A R/B 2.6 21:46:49 26° ESE 21:48:39 40° ENE 21:52:36 10° N
Cosmos 1420 Rocket 3.9 21:45:34 10° SSW 21:50:48 87° ESE 21:56:03 10° NNE
Atlas Centaur 2 2.0 21:48:00 10° W 21:51:22 32° SSW 21:52:19 28° SSE
Intelsat 3F5 C 4.5 21:48:29 10° W 21:51:48 48° S 21:52:26 40° SSE
Cosmos 1939 Rocket 2.9 21:50:56 29° SE 21:52:42 58° ENE 21:56:34 10° N
Abrixas 3.7 21:50:51 10° WSW 21:53:46 43° NW 21:56:42 10° NE
APEX 3.5 21:52:42 10° SSW 21:56:21 75° WNW 22:01:08 10° NNE
Okean 3 3.5 21:52:47 10° N 21:57:00 60° E 21:58:47 32° SSE
YAOGAN 11 4.4 21:54:32 14° S 21:58:21 68° WSW 22:02:54 10° NNW
Cosmos 1140 Rocket 3.7 21:53:27 10° N 21:58:29 53° ENE 22:00:42 31° SE
COSMOS 2487 2.4 21:55:18 10° NNW 21:58:55 78° ENE 22:00:03 41° SSE
Cosmos 407 Rocket 4.4 21:55:57 10° NNW 22:01:02 48° WSW 22:05:59 11° S
Cosmos 2154 Rocket 4.3 21:54:56 10° SSW 22:01:07 68° W 22:07:18 10° N
Timation 2 Rocket 4.2 21:55:38 10° N 22:01:25 49° ENE 22:04:05 30° ESE
Cosmos 1238 Rocket 2.7 22:00:26 10° N 22:04:05 84° E 22:06:08 30° S
SPOT 5 3.4 22:02:47 31° SE 22:04:56 49° ENE 22:10:05 10° N
CZ-4B R/B 4.1 22:04:07 10° NE 22:08:19 32° E 22:08:19 32° E
Cosmos 489 Rocket 4.4 22:03:01 10° NNW 22:09:13 74° ENE 22:12:25 30° SSE
Cosmos 1184 Rocket 4.1 22:06:32 10° SSW 22:09:41 41° W 22:12:52 10° N
NOSS 8 (F) 4.4 22:06:49 10° SSW 22:10:26 90° S 22:13:56 10° NNE
Cosmos 2082 Rocket 3.0 22:06:12 10° N 22:11:21 35° ENE 22:12:49 30° E
Lacrosse 5 2.1 22:10:29 10° SSW 22:15:19 45° ESE 22:20:10 10° NE
H-2A R/B 3.9 22:20:50 17° ENE 22:20:55 17° ENE 22:24:10 10° NNE
Cosmos 2366 rocket 4.1 22:22:11 36° SSE 22:24:37 58° E 22:30:48 10° NNE
Cosmos 2297 4.2 22:19:39 10° SSW 22:25:15 60° WNW 22:30:56 10° NNE
MetOp-B 4.1 22:25:01 46° SE 22:26:27 65° ENE 22:31:45 10° N
UNK 4.3 22:21:09 10° NNE 22:27:14 74° ESE 22:30:20 29° S
Okean 2 Rocket 3.9 22:24:27 13° SSW 22:28:11 48° W 22:32:27 10° N
Meteor 1-14 Rocket 4.1 22:26:18 24° S 22:29:48 90° ENE 22:35:25 10° N
SPOT 1/Viking Rocket 3.7 22:35:56 52° E 22:36:23 53° ENE 22:41:28 10° N
Intercosmos 25 4.1 22:37:35 38° WSW 22:38:15 43° W 22:41:18 10° N
Cosmos 1242 Rocket 3.2 22:35:22 10° NNW 22:38:57 53° W 22:39:00 53° W
YAOGAN 6 3.5 22:45:16 44° NNW 22:45:16 44° NNW 22:47:46 10° NNW
GPS 2-05 Rocket1 4.1 22:44:11 10° WNW 22:46:56 43° NW 22:46:56 43° NW
Lacrosse 5 rocket 2.0 22:44:31 10° SW 22:48:25 50° NW 22:52:09 10° NNE
Cosmos 1850 Rocket 4.2 22:43:26 10° NNW 22:48:44 67° WSW 22:49:44 54° SSW
Meteor 2-19 Rocket 4.3 22:49:33 61° SE 22:50:26 70° E 22:56:30 10° NNE
ARGOS 3.1 22:50:37 65° E 22:50:47 66° ENE 22:56:06 10° N
Cosmos 2369 Rocket 4.2 22:55:52 14° NE 22:55:52 14° NE 22:56:51 10° NE
OAO 3 Rocket 3.5 22:47:47 10° W 22:52:43 63° N 22:53:20 57° NNE
USA 229 DEB 3.8 22:45:49 10° NNW 22:52:55 66° ENE 22:54:27 53° ESE
SL-08 RB Rocket 4.3 22:53:47 48° NE 22:53:47 48° NE 22:57:31 10° N
USA 229 3.8 22:45:56 10° NNW 22:53:01 65° ENE 22:54:33 53° ESE
Cosmos 2218 Rocket 4.3 22:52:54 27° SSW 22:56:31 65° W 23:02:53 10° N
CZ-4 R/B 4.0 22:55:26 10° NNE 22:59:18 62° NNE 22:59:18 62° NNE
DNEPR-1 R/B 4.5 22:56:09 10° NW 23:00:37 42° WSW 23:00:37 42° WSW
Cosmos 1536 Rocket 4.2 23:00:43 10° N 23:04:12 54° N 23:04:12 54° N
Meteor 2-8 Rocket 4.3 23:00:10 10° N 23:06:22 85° E 23:06:48 78° SSE
Cosmos 1331 Rocket 4.1 23:07:15 67° W 23:07:31 69° WNW 23:12:39 10° N
Cosmos 1727 Rocket 3.9 23:08:34 10° N 23:14:45 82° W 23:15:12 76° SSW
Terra 3.1 23:23:26 34° NNE 23:23:26 34° NNE 23:26:18 10° N
Meteor 1-20 Rocket 4.5 23:21:30 59° W 23:21:50 60° W 23:27:17 10° N
Cosmos 1833 Rocket 3.0 23:21:45 10° NNW 23:26:48 59° W 23:26:48 59° W
NOSS 3-1 (C) 4.3 23:32:15 10° NNW 23:39:50 55° ENE 23:40:23 54° ENE
Cosmos 1821 Rocket 4.5 23:42:00 51° NNE 23:42:00 51° NNE 23:46:40 10° N
USA 234 3.6 23:40:28 10° NE 23:45:22 55° NE 23:45:22 55° NE
Cosmos 2082 Rocket 3.8 23:50:37 10° NW 23:54:41 25° W 23:54:41 25° W
